Regional Weather Roundup
Issued by NWS

Home | Current Version | Previous Version | Text Only | Print | Product List | Glossary On
Versions: 1 2 3 4 5 6 7 8 9 10 11 12 13 14 15 16 17 18 19 20 21 22 23 24 25 26 27
000
ASUS45 KREV 230710
RWRNV
NEVADA REGIONAL WEATHER ROUNDUP
NATIONAL WEATHER SERVICE RENO NV
1200 AM PDT WED APR 23 2014

NOTE: "FAIR" INDICATES FEW OR NO CLOUDS BELOW 12,000 FEET WITH NO
SIGNIFICANT WEATHER AND/OR OBSTRUCTIONS TO VISIBILITY.

NVZ001-003-004-230800-
WESTERN NEVADA

CITY           SKY/WX    TMP DP  RH WIND       PRES   REMARKS
RENO           MOCLDY    43  24  47 NW10      30.04R
CARSON CITY    FAIR      39  19  45 N3        30.04S
MINDEN         PTCLDY    39  27  60 CALM      30.05S
SLIDE MTN        N/A     18  16  93 NW7         N/A
FALLON         MOCLDY    37  23  56 S5        30.04R
LOVELOCK       MOCLDY    39  19  44 SE7       30.02R
HAWTHORNE      CLEAR     45  19  36 NW9       30.02R
$$

NVZ002-CAZ072-073-230800-
NORTHERN AND CENTRAL SIERRA

CITY           SKY/WX    TMP DP  RH WIND       PRES   REMARKS
S. LAKE TAHOE  MOCLDY    32  26  78 S3        30.04S
TRUCKEE        CLOUDY    28  25  86 SW3       30.06S
SQUAW VLY 8000   N/A     25  23  93 VRB1        N/A
SUSANVILLE     CLEAR     34  27  75 CALM      30.04S
BLUE CANYON    CLOUDY    36  28  73 SE5       30.07S
MAMMOTH LAKES  FAIR      32  14  47 SE3       29.99S
BRIDGEPORT     FAIR      28  17  63 NW3       30.00S
$$

NVZ030-031-036-230800-
NORTHERN NEVADA

CITY           SKY/WX    TMP DP  RH WIND       PRES   REMARKS
ELKO           PTCLDY    32  29  88 S5        29.96R
WINNEMUCCA     PTCLDY    36  18  48 W10       30.01R
WENDOVER       CLOUDY    45  23  42 N9G26     29.91S
$$

NVZ035-037-230800-
CENTRAL NEVADA

CITY           SKY/WX    TMP DP  RH WIND       PRES   REMARKS
ELY            MOCLDY    30  19  63 NW6       29.96R
EUREKA           N/A     34  22  61 W12       29.96F
$$

NVZ013-014-230800-
SOUTH CENTRAL NEVADA

CITY           SKY/WX    TMP DP  RH WIND       PRES   REMARKS
TONOPAH        PTCLDY    40  14  34 N16       29.98S
$$

NVZ017-020-022-230800-
SOUTHERN NEVADA

CITY           SKY/WX    TMP DP  RH WIND       PRES   REMARKS
LAS VEGAS      PTCLDY    68  -6   5 W10       29.75R
N. LAS VEGAS   CLEAR     67  -6   5 NW18G28   29.77R
NELLIS AFB     CLEAR     67  -2   6 NW8       29.77R
HENDERSON      CLEAR     60  17  19 S9        29.81R
MERCURY        CLEAR     57   7  13 NE15G22   29.86R
$$



USA.gov is the U.S. government's official web portal to all federal, state and local government web resources and services.